Diyarbakir, Turkey

2:51 AM +03 on June 29, 2017 (GMT +0300)
Diyarbakir

Weather History for LTCC - March, 2013

Change the Weather History Date:

Tuesday, March 5, 2013

  Actual Average Record
Temperature  
Mean Temperature 43 °F -  
Max Temperature 53 °F 60 °F 68 °F (2002)
Min Temperature 33 °F 39 °F 26 °F (2011)
Degree Days  
Heating Degree Days 22    
Moisture  
Dew Point 30 °F    
Average Humidity 60    
Maximum Humidity 93    
Minimum Humidity 23    
Precipitation  
Precipitation 0.02 in 0.09 in - ()
Sea Level Pressure  
Sea Level Pressure 29.87 in    
Wind  
Wind Speed 10 mph ()    
Max Wind Speed 26 mph    
Max Gust Speed 32 mph    
Visibility 6.6 miles    
Events Rain    
Averages and records for this station are not official NWS values.
T = Trace of Precipitation, MM = Missing Value Source: Averaged Metar Reports

Daily Weather History Graph

Daily Weather History Graph

Search for Another Location

Airport or City:

Trip Planner

Search our weather history database for the weather conditions in past years. The results will help you decide how hot, cold, wet, or windy it might be!

Date:

Astronomy

Mar. 05, 2013 Rise Set
Actual Time 5:45 AM EET 5:16 PM EET
Civil Twilight 5:18 AM EET 5:42 PM EET
Nautical Twilight 4:48 AM EET 6:13 PM EET
Astronomical Twilight 4:18 AM EET 6:43 PM EET
Moon 12:30 AM EET (3/5) 10:38 AM EET (3/5)
Length of Visible Light 12h 23m
Length of Day
11h 31m
Last Quarter, 44% of the Moon is Illuminated
Mar 5
Last Quarter
Mar 11
New
Mar 19
First Quarter
Mar 27
Full
Apr 3
Last Quarter

Hourly Weather History & Observations

Time (EET) Temp. Windchill Dew Point Humidity Pressure Visibility Wind Dir Wind Speed Gust Speed Precip Events Conditions
12:20 AM 46.4 °F - 42.8 °F 87% 29.80 in 6.2 mi East 2.3 mph - N/A   Mostly Cloudy
12:50 AM 46.4 °F 44.3 °F 42.8 °F 87% 29.80 in 6.2 mi NNW 4.6 mph - N/A   Mostly Cloudy
1:20 AM 46.4 °F 43.5 °F 42.8 °F 87% 29.80 in - North 5.8 mph - N/A   Clear
1:50 AM 44.6 °F 43.1 °F 41.0 °F 87% 29.80 in - WNW 3.5 mph - N/A   Clear
2:00 AM 44 °F - 39 °F 76% 29.88 in 6 mi North 2.3 mph - -   Partly Cloudy
2:20 AM 42.8 °F 38.6 °F 41.0 °F 93% 29.80 in - North 6.9 mph - N/A   Clear
2:50 AM 42.8 °F 38.6 °F 41.0 °F 93% 29.80 in - North 6.9 mph - N/A   Clear
3:20 AM 42.8 °F 38.6 °F 41.0 °F 93% 29.80 in - NNW 6.9 mph - N/A   Clear
3:50 AM 42.8 °F 37.5 °F 41.0 °F 93% 29.80 in - NW 9.2 mph - N/A   Clear
4:20 AM 42.8 °F 38.6 °F 41.0 °F 93% 29.80 in - NNW 6.9 mph - N/A   Clear
4:50 AM 44.6 °F 43.1 °F 42.8 °F 93% 29.80 in - NNW 3.5 mph - N/A   Clear
5:20 AM 42.8 °F 39.3 °F 41.0 °F 93% 29.80 in - West 5.8 mph - N/A   Clear
5:50 AM 44.6 °F 38.4 °F 37.4 °F 76% 29.80 in - North 12.7 mph - N/A   Clear
6:20 AM 44.6 °F 37.8 °F 35.6 °F 71% 29.83 in - NNW 15.0 mph - N/A   Clear
6:50 AM 44.6 °F 39.2 °F 37.4 °F 76% 29.83 in 6.2 mi NNW 10.4 mph - N/A   Mostly Cloudy
7:20 AM 46.4 °F 41.5 °F 37.4 °F 71% 29.86 in 6.2 mi NNW 10.4 mph - N/A   Mostly Cloudy
7:50 AM 46.4 °F 41.1 °F 35.6 °F 66% 29.86 in 6.2 mi NW 11.5 mph - N/A   Mostly Cloudy
8:00 AM 46 °F - 36 °F 57% 29.87 in 6 mi NW 11.5 mph - -   Scattered Clouds
8:20 AM 46.4 °F 39.8 °F 33.8 °F 62% 29.86 in 6.2 mi NW 16.1 mph - N/A   Mostly Cloudy
8:50 AM 42.8 °F 34.8 °F 35.6 °F 76% 29.89 in 6.2 mi NW 17.3 mph - N/A Rain Light Rain Showers
9:20 AM 41.0 °F 31.6 °F 35.6 °F 81% 29.89 in 6.2 mi NW 20.7 mph - N/A Rain Light Rain Showers
9:50 AM 41.0 °F 37.1 °F 35.6 °F 81% 29.86 in 6.2 mi NE 5.8 mph - N/A   Mostly Cloudy
10:20 AM 44.6 °F - 35.6 °F 71% 29.86 in 6.2 mi Variable 2.3 mph - N/A   Mostly Cloudy
10:50 AM 44.6 °F 40.7 °F 39.2 °F 81% 29.86 in 6.2 mi SSW 6.9 mph - N/A   Mostly Cloudy
11:20 AM 50.0 °F - 28.4 °F 43% 29.86 in 6.2 mi NW 17.3 mph - N/A   Mostly Cloudy
11:50 AM 51.8 °F - 30.2 °F 44% 29.83 in 6.2 mi NW 16.1 mph - N/A   Mostly Cloudy
12:20 PM 53.6 °F - 30.2 °F 41% 29.83 in 6.2 mi NW 18.4 mph - N/A   Mostly Cloudy
12:50 PM 51.8 °F - 26.6 °F 38% 29.83 in 6.2 mi North 15.0 mph - N/A   Scattered Clouds
1:20 PM 51.8 °F - 26.6 °F 38% 29.80 in 6.2 mi NNW 17.3 mph - N/A   Scattered Clouds
1:50 PM 51.8 °F - 28.4 °F 41% 29.83 in 6.2 mi NNW 16.1 mph - N/A   Scattered Clouds
2:00 PM 52 °F - 26 °F 23% 29.83 in 12 mi NNW 16.1 mph - -   Partly Cloudy
2:20 PM 51.8 °F - 24.8 °F 35% 29.83 in 6.2 mi NNW 16.1 mph - N/A   Scattered Clouds
2:50 PM 51.8 °F - 24.8 °F 35% 29.83 in 6.2 mi NW 18.4 mph 32.2 mph N/A   Scattered Clouds
3:20 PM 51.8 °F - 17.6 °F 26% 29.83 in 6.2 mi NW 26.5 mph - N/A   Scattered Clouds
3:50 PM 50.0 °F - 24.8 °F 37% 29.83 in 6.2 mi NNW 19.6 mph - N/A   Scattered Clouds
4:20 PM 48.2 °F - 24.8 °F 40% 29.83 in 6.2 mi North 21.9 mph - N/A   Scattered Clouds
4:50 PM 48.2 °F - 24.8 °F 40% 29.86 in 6.2 mi North 16.1 mph - N/A   Scattered Clouds
5:20 PM 46.4 °F 38.1 °F 17.6 °F 32% 29.86 in 6.2 mi NNW 24.2 mph - N/A   Scattered Clouds
5:50 PM 44.6 °F 36.9 °F 15.8 °F 31% 29.89 in 6.2 mi NNW 18.4 mph - N/A   Scattered Clouds
6:20 PM 44.6 °F 36.9 °F 19.4 °F 37% 29.92 in 6.2 mi NW 18.4 mph - N/A   Scattered Clouds
6:50 PM 42.8 °F 33.5 °F 23.0 °F 46% 29.92 in 6.2 mi NW 23.0 mph - N/A   Scattered Clouds
7:20 PM 41.0 °F 32.2 °F 24.8 °F 53% 29.95 in - NW 18.4 mph - N/A   Clear
7:50 PM 39.2 °F 29.8 °F 23.0 °F 52% 29.95 in - NW 18.4 mph - N/A   Clear
8:00 PM 40 °F - 23 °F 38% 29.99 in 12 mi NW 18.4 mph - -  
8:20 PM 37.4 °F 28.9 °F 23.0 °F 56% 29.98 in - NW 13.8 mph - N/A   Clear
8:50 PM 37.4 °F 28.5 °F 23.0 °F 56% 29.95 in - NW 15.0 mph - N/A   Clear
9:20 PM 35.6 °F 26.6 °F 24.8 °F 65% 29.98 in - NW 13.8 mph - N/A   Clear
9:50 PM 33.8 °F 25.8 °F 23.0 °F 65% 29.98 in - NW 10.4 mph - N/A   Clear
10:20 PM 35.6 °F 25.9 °F 19.4 °F 52% 29.98 in - NNW 16.1 mph - N/A   Clear
10:50 PM 35.6 °F 26.6 °F 15.8 °F 44% 29.98 in - NW 13.8 mph - N/A   Clear
11:20 PM 33.8 °F 23.5 °F 14.0 °F 44% 29.98 in - NW 16.1 mph - N/A   Clear
11:50 PM 33.8 °F 22.8 °F 12.2 °F 41% 30.01 in - NW 18.4 mph - N/A   Clear